Simultaneous Nadir Overpasses (SNOs) Predictions

Prediction of SNOs between GOES-17 and FY3D Satellite Orbit:

Table of predicted SNOs for the next 14.0 days since TLE Epoch: 9/26/2020
Index Date Time (GOES-17) GOES-17 Lat,Lon FY3D Lat,Lon Distance(km) Time Diff (sec)
1 09/27/2020 10:47:06 0.04,-137.21 0.43,-139.09 213.85 80
2 09/28/2020 10:30:50 0.04,-137.21 -0.59,-134.51 307.99 80
3 09/29/2020 22:49:48 -0.03,-137.19 -0.59,-139.73 289.45 80
4 09/30/2020 22:33:31 -0.03,-137.19 0.44,-135.15 232.30 80
5 10/02/2020 10:52:21 0.03,-137.19 0.72,-140.34 359.00 80
6 10/03/2020 10:36:04 0.03,-137.18 -0.31,-135.76 162.48 80
7 10/04/2020 22:55:03 -0.03,-137.16 -0.87,-140.98 435.85 80
8 10/05/2020 22:38:46 -0.03,-137.15 0.16,-136.40 85.17 80
9 10/08/2020 10:41:18 0.03,-137.12 0.02,-137.00 13.01 80
